DOUGLAS Weather Reports


time (UTC)temp
F
wind
direction
speed
knots
gust
knots
rain 1hr
in
rain 24hr
in
rain mn
in
humidity
%
barometer
mb
20260505064003 49 218 2.6 11.3 0.00 0.00 0.00
20260505063003 49 221 3.5 8.7 0.00 0.00 0.00
20260505062003 49 253 0.9 7.0 0.00 0.00 0.00
20260505061002 49 258 3.5 7.0 0.00 0.00 0.00
20260505060003 49 240 1.7 5.2 0.00 0.00 0.00
20260505055003 49 172 0.9 5.2 0.00 0.00 0.00
20260505054003 49 247 2.6 10.4 0.00 0.00 0.00
20260505053003 49 261 1.7 7.8 0.00 0.00 0.00
20260505052003 49 240 3.5 7.8 0.00 0.00 0.00
20260505051003 49 235 2.6 6.1 0.00 0.00 0.00
20260505041003 49 251 3.5 7.0 0.00 0.00 0.00
20260505040003 49 217 0.9 7.8 0.00 0.00 0.00
20260505035002 50 220 0.9 5.2 0.00 0.00 0.00
20260505034003 49 232 1.7 7.0 0.00 0.00 0.00
20260505033003 50 252 1.7 7.8 0.00 0.00 0.00
20260505032003 50 214 1.7 7.0 0.00 0.00 0.00
20260505031003 50 233 3.5 8.7 0.00 0.00 0.00
20260505030003 50 199 1.7 8.7 0.00 0.00 0.00
20260505025003 50 245 3.5 7.8 0.00 0.00 0.00
20260505024003 50 119 1.7 7.0 0.00 0.00 0.00
20260505023004 51 201 0.9 3.5 0.00 0.00 0.00
20260505022003 51 192 0.9 5.2 0.00 0.00 0.00
20260505021003 52 195 0.9 7.8 0.00 0.00 0.00
20260505020003 52 200 1.7 6.1 0.00 0.00 0.00 98
20260505015002 52 135 0.0 7.0 0.00 0.00 0.00 98
20260505014003 53 220 1.7 9.6 0.00 0.00 0.00 98
20260505013003 53 212 1.7 7.0 0.00 0.00 0.00 95
20260505012003 53 234 1.7 10.4 0.00 0.00 0.00 94
20260505011003 56 234 0.9 6.1 0.00 0.00 0.00 88
20260505010004 57 237 2.6 10.4 0.00 0.00 0.00 84
20260505005002 57 183 0.9 5.2 0.00 0.00 0.00 85
20260505004003 58 148 0.9 4.3 0.00 0.00 0.00 82
20260505003003 58 210 0.9 9.6 0.00 0.00 0.00 84
20260505002003 57 202 2.6 7.8 0.00 0.00 0.00 83
20260505001003 58 192 1.7 7.8 0.00 0.00 0.00 81
20260505000004 58 246 1.7 8.7 0.00 0.00 0.00 81
20260504235002 58 192 2.6 9.6 0.00 0.00 0.00 83
20260504234002 59 249 1.7 7.0 0.00 0.00 0.00 81
20260504233003 59 241 1.7 7.0 0.00 0.00 0.00 79
20260504232003 58 203 2.6 12.2 0.00 0.00 0.00 82
20260504231003 59 207 1.7 8.7 0.00 0.00 0.00 80
20260504230004 60 156 1.7 10.4 0.00 0.00 0.00 78
20260504225003 60 206 2.6 9.6 0.00 0.00 0.00 78
20260504224002 61 210 3.5 7.8 0.00 0.00 0.00 77
20260504223003 63 166 0.9 7.0 0.00 0.00 0.00 73
20260504222003 63 256 1.7 5.2 0.00 0.00 0.00 73
20260504221003 62 224 0.9 8.7 0.00 0.00 0.00 74
20260504220004 63 157 0.9 7.8 0.00 0.00 0.00 72
20260504215003 63 195 0.9 6.1 0.00 0.00 0.00 71
20260504214003 62 223 1.7 7.0 0.00 0.00 0.00 74
20260504213003 64 231 0.9 7.8 0.00 0.00 0.00 71
20260504212003 63 148 1.7 7.8 0.00 0.00 0.00 73
20260504211003 64 135 1.7 6.1 0.00 0.00 0.00 69
20260504210004 64 244 1.7 5.2 0.00 0.00 0.00 71
20260504205003 65 101 0.9 6.1 0.00 0.00 0.00 70
20260504204004 63 132 1.7 7.8 0.00 0.00 0.00 72
20260504203003 63 252 2.6 4.3 0.00 0.00 0.00 73
20260504202002 62 229 1.7 5.2 0.00 0.00 0.00 73
20260504201002 63 206 0.9 4.3 0.00 0.00 0.00 71
20260504200003 62 158 0.9 3.5 0.00 0.00 0.00 73
20260504195003 62 157 0.0 6.1 0.00 0.00 0.00 74
20260504194003 60 269 3.5 8.7 0.00 0.00 0.00 79
20260504193003 60 259 2.6 8.7 0.00 0.00 0.00 79
20260504192003 60 268 1.7 7.0 0.00 0.00 0.00 80
20260504191003 59 256 2.6 6.1 0.00 0.00 0.00 79
20260504190003 60 107 1.7 6.1 0.00 0.00 0.00 79
20260504185002 58 250 1.7 6.1 0.00 0.00 0.00 86
20260504184003 58 191 0.0 6.1 0.00 0.00 0.00 87
20260504183003 56 247 1.7 8.7 0.00 0.00 0.00 89
20260504182003 55 244 0.9 5.2 0.00 0.00 0.00 92
20260504181003 54 227 1.7 4.3 0.00 0.00 0.00 95
20260504180003 53 259 0.9 3.5 0.00 0.00 0.00 97
20260504175003 53 105 0.0 5.2 0.00 0.00 0.00
20260504174003 52 236 1.7 5.2 0.00 0.00 0.00
20260504173003 51 239 2.6 7.0 0.00 0.00 0.00
20260504172003 51 254 0.9 5.2 0.00 0.00 0.00
20260504171003 51 244 0.9 5.2 0.00 0.00 0.00
20260504151003 49 224 0.0 3.5 0.00 0.00 0.00 100
20260504141003 49 231 1.7 7.0 0.00 0.00 0.00
20260504082003 51 261 2.6 9.6 0.00 0.00 0.00
20260504081002 51 282 1.7 5.2 0.00 0.00 0.00